Tracking 28794 objects as of 19-Apr-2024
HD Live streaming from Space Station
objects crossing your sky now

COSMOS 2440

Track COSMOS 2440 now!
COSMOS 2440 is classified as:


NORAD ID: 33108
Int'l Code: 2008-033A
Perigee: 35,778.5 km
Apogee: 35,809.4 km
Inclination: 9.1 °
Period: 1,436.1 minutes
Semi major axis: 42164 km
RCS: 10.0237 m2 (large)
Launch date: June 27, 2008
Source: Commonwealth of Independent States (former USSR) (CIS)
Launch site: TYURATAM MISSILE AND SPACE COMPLEX (TTMTR)

Cosmos 2440 is a Russian military, geostationary, early warning craft.
Your satellite tracking list
Your tracking list is empty




NASA's NSSDC Master Catalog

Two Line Element Set (TLE):
1 33108U 08033A   24109.85718130 -.00000147  00000-0  00000-0 0  9991
2 33108   9.0670  46.9113 0003664 152.0203  37.3839  1.00271041 57871
Source of the keplerian elements: AFSPC